User: anonymous   Login
Location: Unspecified
(0.0000°N, 0.0000°E)
Time: 00:57:41
(UTC+00:00)
Language:

YAOGAN 25B - Orbit

View from above orbital plane
View from above orbital plane
View from above satellite
View from above satellite

Ground track
Ground track

The orbit is defined by the following mean orbital elements,

1 40339U          26145.60008264 +.00000000 +00000-0 +19857-3 0 00009
2 40339  63.3906   9.1050 0364940   8.8562 351.8673 13.45433608    08
Epoch (UTC): 25 May 2026 14:24:07
Eccentricity: 0.0364940
inclination: 63.3906°
perigee height: 817 km
apogee height: 1362 km
right ascension of ascending node: 9.1050°
argument of perigee: 8.8562°
revolutions per day: 13.45433608
mean anomaly at epoch: 351.8673°

The dashed part of the orbit path shows where the satellite is in the earth's shadow,  

DLR